Location: ??????
(38.5153°N, 23.0340°E)
Time: 22:50:25
(UTC+00:00)

IRS-1C - Pass Details

Date: 13 December 2025
Orbit: 813 x 814 km, 99.0° (Epoch: 14 January)

Event Time Altitude Azimuth Distance (km) Brightness Sun altitude
Rises 16:02:51 0° 161° (SSE) 3,323 7.3 -10.6°
Reaches altitude 10° 16:05:11 10° 161° (SSE) 2,395 6.6 -11.1°
Maximum altitude 16:10:28 80° 75° (ENE) 830 4.1 -12.0°
Drops below altitude 10° 16:15:49 10° 349° (NNW) 2,410 6.5 -13.0°
Sets 16:18:09 0° 348° (NNW) 3,346 7.2 -13.4°
